Regional Weather Roundup
Issued by NWS Charleston, SC

Current Version | Previous Version | Graphics & Text | Print | Product List | Glossary On
Versions: 1 2 3 4 5 6 7 8 9 10 11 12 13 14 15 16 17 18 19 20 21 22 23 24 25 26 27 28 29 30 31 32 33 34 35 36 37 38 39 40 41 42 43 44 45 46 47 48 49 50
000
ASUS42 KCHS 091527
RWRCHS

REGIONAL WEATHER ROUNDUP
NATIONAL WEATHER SERVICE CHARLESTON SC
1000 AM EST TUE FEB 09 2016

NOTE: "FAIR" INDICATES FEW OR NO CLOUDS BELOW 12,000 FEET WITH NO
SIGNIFICANT WEATHER AND/OR OBSTRUCTIONS TO VISIBILITY.

NOT ALL STATIONS ARE QUALITY CONTROLLED BY THE NATIONAL
WEATHER SERVICE. USE DATA WITH CAUTION...ESPECIALLY
DEWPOINT OBSERVATIONS.

NOTICE: OBSERVATIONS FOR THE SAVANNAH-HILTON HEAD INTERNATIONAL AIRPORT
/KSAV/ HAVE BEEN TEMPORARILY REMOVED DUE TO AN ERRONEOUS TEMPERATURE
SENSOR. THE OBSERVATION WILL BE REINTRODUCED ONCE REPAIRS ARE COMPLETE.

SCZ027-030-031-034>040-042>050-091600-
...SOUTHEAST SOUTH CAROLINA...

CITY           SKY/WX    TMP DP  RH WIND       PRES   REMARKS
N CHARLESTON   MOSUNNY   45  25  45 W14G25    29.84F
WATERFRONT PRK   N/A     43  29  57 W8        29.71R
MOUNT PLEASANT FAIR      45  28  53 W16G24    29.85F
JOHNS ISLAND   FAIR      45  27  49 W13G20    29.85F
PINOPOLIS        N/A     41  28  60 W15       29.75F
MONCKS CORNER  PTSUNNY   41  23  48 W3        29.83F
SUMMERVILLE    FAIR      43  30  61 SW13G20   29.85F
BEAUFORT MCAS  SUNNY     45  27  49 W18G24    29.87F
BEAUFORT ARPT  FAIR      45  28  53 W12G22    29.86F
HILTON HEAD IS SUNNY     43  28  56 W12G23    29.89F
WALTERBORO     MOSUNNY   45  30  57 W17       29.85F
ALLENDALE      PTSUNNY   43  27  52 W6G17     29.84F

...SOUTHERN MIDLANDS AND PEE DEE...

CITY           SKY/WX    TMP DP  RH WIND       PRES   REMARKS
GEORGETOWN     NOT AVBL
KINGSTREE      NOT AVBL
ORANGEBURG     CLOUDY    41  25  53 W12G21    29.83S
BARNWELL       PTSUNNY   43  28  56 W15G21    29.84S
AIKEN          CLOUDY    37  23  56 W15G22    29.84S WCI  28
MANNING        FAIR      41  25  52 SW14G21   29.82F
COLUMBIA       PTSUNNY   42  23  46 W18G26    29.81R
SUMTER         PTSUNNY   40  24  52 SW23G29   29.78R WCI  30
FLORENCE       MOSUNNY   41  23  48 W18G25    29.78R
MYRTLE BEACH   MOSUNNY   43  23  45 W18G31    29.82R
N MYRTLE BEACH SUNNY     42  23  46 W18G30    29.78R

$$

GAZ063-065-086>088-099>101-113>116-118-119-134>141-150-091600-
...SOUTHEAST GEORGIA...

CITY           SKY/WX    TMP DP  RH WIND       PRES   REMARKS
SAVANNAH ARPT  MOSUNNY   44  27  51 W20       29.89F
HUNTER AAF     SUNNY     44  29  55 W18G24    29.86F
FORT STEWART   SUNNY     44  26  50 W20G25    29.88F
STATESBORO     MOSUNNY   47  23  38 W16G23    29.89S
SYLVANIA       PTSUNNY   44  31  61 W16G25    29.87F
CLAXTON        FAIR      44  31  60 SW17G29   29.90S

...CSRA...CENTRAL AND FAR SOUTHEAST GEORGIA...

CITY           SKY/WX    TMP DP  RH WIND       PRES   REMARKS
THOMSON        CLOUDY    40  28  62 W9G20     29.89S WCI  34
AUGUSTA-BUSH   CLOUDY    41  23  48 W14G24    29.85S
AUGUSTA-DANIEL CLOUDY    40  21  46 W10G21    29.84S WCI  33
SWAINSBORO     CLOUDY    41  27  56 W16G26    29.89S
VIDALIA        MOSUNNY   43  28  56 W10G20    29.91S
EASTMAN        CLOUDY    41  26  54 W12G21    29.95S
HAZLEHURST     CLOUDY    42  27  54 W7G23     29.93R
ALMA           MOSUNNY   43  25  49 W17G28    29.94S
WAYCROSS       MOSUNNY   47  28  47 W21G31    29.96S
JESUP          FAIR      46  30  53 W13G28    29.94R
BAXLEY         FAIR      43  25  49 W14G25    29.93S
BRUNSWICK      SUNNY     46  28  49 W13G33    29.94S
SAINT SIMONS   SUNNY     45  25  45 W16G26    29.93F

$$

SCZ027-028-034-036>038-045-046-048>050-GAZ119-141-091600-
...LAKE AND SUPPLEMENTAL COASTAL OBSERVATIONS...

STATION/POSITION TIME  TEMP    WIND        PRES    WAVE   SWELL
                       AIR SEA DIR/SP/G            HT/PER HT/PER/DIR
                 (UTC) (F)     (DEG/KT/KT) (MB)    (FT/S) (FT/S/D)
WINYAH BAY       1400   41     270/ 13     1008.0
LAKE MURRAY      1400   38     280/ 15/ 23 1008.5R
ACE BASIN NERRS  1445   43     260/  7     1011.0S
FORT PULASKI     1500   43 52  260/ 14/ 18 1012.2F
SAPELO ISLAND    1500   44     260/ 20     1013.0F

$$

ANZ835-935-AMZ111-154-330-350-352-354-370-450-454-472-091600-
...C-MAN AND BUOY OBSERVATIONS...

STATION/POSITION TIME  TEMP    WIND        PRES    WAVE   SWELL
                       AIR SEA DIR/SP/G            HT/PER HT/PER/DIR
                 (UTC) (F)     (DEG/KT/KT) (MB)    (FT/S) (FT/S/D)
BUOY 41004       1450   47 65  260/ 25/ 33 1010.2R   8/ 7   2/14
BUOY 41008       1450   44 55  270/ 23/ 27 1012.8F   5/ 5
FOLLY BEACH CMAN 1500   44     260/ 11/ 17 1010.9F
CAPERS NEARSHORE 1408   43     270/ 21/ 31 1010.5R
FRIPP NEARSHORE  1400   44     280/ 25/ 29 1011.5R


STATION/POSITION TIME  TEMP    WIND        PRES    WAVE   SWELL
                       AIR SEA DIR/SP/G            HT/PER HT/PER/DIR
                 (UTC) (F)     (DEG/KT/KT) (MB)    (FT/S) (FT/S/D)
5E ST. MARYS GA  1421      56                N/A     3/15   2/ 80/15
FRYING PAN BUOY  1500   45 60  260/ 27/ 35 1008.9R
BUOY 41025       1450   47 73  280/ 17/ 23 1003.4R  11/14  10/ 70/14
CAPE LOOKOUT NC  NOT AVBL
BUOY 41002       1450   57 69  280/ 29/ 35   N/A    18/11  11/270/11
BUOY 41010       1420   59 72              1014.6R
ST AUGUSTINE FL  1500   48 56  270/ 16/ 22 1016.4F


$$



USA.gov is the U.S. government's official web portal to all federal, state and local government web resources and services.